Time,TemperatureF,DewpointF,PressureIn,WindDirection,WindDirectionDegrees,WindSpeedMPH,WindSpeedGustMPH,Humidity,HourlyPrecipIn,Conditions,Clouds,dailyrainin,SoftwareType,DateUTC
2013-03-09 00:00:00,47.7,32.2,29.54,ESE,113,1.6,5.4,55,0.00,,,0.00,WUHU216HW,2013-03-09 06:00:00,
2013-03-09 00:05:00,47.7,32.2,29.54,NNW,338,0.4,5.4,55,0.00,,,0.00,WUHU216HW,2013-03-09 06:05:00,
2013-03-09 00:10:00,47.7,32.2,29.54,NE,45,1.6,1.6,55,0.00,,,0.00,WUHU216HW,2013-03-09 06:10:00,
2013-03-09 00:15:00,47.7,32.2,29.54,East,90,1.3,2.2,55,0.00,,,0.00,WUHU216HW,2013-03-09 06:15:00,
2013-03-09 00:20:00,47.7,32.2,29.54,ENE,68,1.1,2.7,55,0.00,,,0.00,WUHU216HW,2013-03-09 06:20:00,
2013-03-09 00:25:00,47.5,32.0,29.53,ENE,68,2.9,2.9,55,0.00,,,0.00,WUHU216HW,2013-03-09 06:25:00,
2013-03-09 00:30:00,47.5,32.0,29.53,SE,135,2.2,2.9,55,0.00,,,0.00,WUHU216HW,2013-03-09 06:30:00,
2013-03-09 00:35:00,47.5,32.0,29.53,ESE,113,2.5,2.7,55,0.00,,,0.00,WUHU216HW,2013-03-09 06:35:00,
2013-03-09 00:40:00,47.5,32.0,29.53,SE,135,1.1,2.7,55,0.00,,,0.00,WUHU216HW,2013-03-09 06:40:00,
2013-03-09 00:45:00,47.5,32.0,29.53,East,90,2.5,2.5,55,0.00,,,0.00,WUHU216HW,2013-03-09 06:45:00,
2013-03-09 00:50:00,47.7,32.2,29.53,ENE,68,3.4,3.4,55,0.00,,,0.00,WUHU216HW,2013-03-09 06:50:00,
2013-03-09 00:55:00,47.5,31.6,29.53,East,90,1.8,3.4,54,0.00,,,0.00,WUHU216HW,2013-03-09 06:55:00,
2013-03-09 01:00:00,47.5,32.0,29.52,ENE,68,0.9,2.7,55,0.00,,,0.00,WUHU216HW,2013-03-09 07:00:00,
2013-03-09 01:05:00,47.5,31.6,29.53,ESE,113,1.1,4.7,54,0.00,,,0.00,WUHU216HW,2013-03-09 07:05:00,
2013-03-09 01:10:00,47.5,31.6,29.52,East,90,1.1,4.7,54,0.00,,,0.00,WUHU216HW,2013-03-09 07:10:00,
2013-03-09 01:15:00,47.5,31.6,29.52,ESE,113,3.4,3.4,54,0.00,,,0.00,WUHU216HW,2013-03-09 07:15:00,
2013-03-09 01:20:00,47.3,31.0,29.52,SE,135,2.2,3.6,53,0.00,,,0.00,WUHU216HW,2013-03-09 07:20:00,
2013-03-09 01:25:00,47.3,31.4,29.51,SE,135,0.0,3.6,54,0.00,,,0.00,WUHU216HW,2013-03-09 07:25:00,
2013-03-09 01:30:00,47.3,31.4,29.51,SE,135,0.7,3.4,54,0.00,,,0.00,WUHU216HW,2013-03-09 07:30:00,
2013-03-09 01:35:00,47.2,31.3,29.51,West,270,0.7,1.8,54,0.00,,,0.00,WUHU216HW,2013-03-09 07:35:00,
2013-03-09 01:40:00,47.2,31.3,29.52,SSE,158,1.1,3.1,54,0.00,,,0.00,WUHU216HW,2013-03-09 07:40:00,
2013-03-09 01:45:00,47.2,31.3,29.51,East,90,2.5,3.4,54,0.00,,,0.00,WUHU216HW,2013-03-09 07:45:00,
2013-03-09 01:50:00,47.2,31.3,29.51,SE,135,0.9,3.4,54,0.00,,,0.00,WUHU216HW,2013-03-09 07:50:00,
2013-03-09 01:55:00,47.2,31.3,29.50,WSW,248,1.1,3.4,54,0.00,,,0.00,WUHU216HW,2013-03-09 07:55:00,
2013-03-09 02:00:00,47.2,31.3,29.50,East,90,1.6,3.6,54,0.00,,,0.00,WUHU216HW,2013-03-09 08:00:00,
2013-03-09 02:05:00,47.0,31.2,29.50,NE,45,4.0,4.0,54,0.00,,,0.00,WUHU216HW,2013-03-09 08:05:00,
2013-03-09 02:10:00,47.0,31.2,29.49,ENE,68,4.0,4.3,54,0.00,,,0.00,WUHU216HW,2013-03-09 08:10:00,
2013-03-09 02:15:00,47.0,31.2,29.49,East,90,3.4,4.3,54,0.00,,,0.00,WUHU216HW,2013-03-09 08:15:00,
2013-03-09 02:20:00,47.0,31.2,29.49,SSE,158,1.1,3.4,54,0.00,,,0.00,WUHU216HW,2013-03-09 08:20:00,
2013-03-09 02:25:00,47.0,31.2,29.49,ESE,113,2.2,4.7,54,0.00,,,0.00,WUHU216HW,2013-03-09 08:25:00,
2013-03-09 02:30:00,46.8,31.0,29.49,NE,45,3.4,4.7,54,0.00,,,0.00,WUHU216HW,2013-03-09 08:30:00,
2013-03-09 02:35:00,46.6,30.8,29.48,East,90,3.8,4.5,54,0.00,,,0.00,WUHU216HW,2013-03-09 08:35:00,
2013-03-09 02:40:00,46.6,30.8,29.47,WNW,293,0.9,4.5,54,0.00,,,0.00,WUHU216HW,2013-03-09 08:40:00,
2013-03-09 02:45:00,46.6,30.8,29.47,ENE,68,3.4,4.0,54,0.00,,,0.00,WUHU216HW,2013-03-09 08:45:00,
2013-03-09 02:50:00,46.6,30.8,29.46,South,180,1.8,4.9,54,0.00,,,0.00,WUHU216HW,2013-03-09 08:50:00,
2013-03-09 02:55:00,46.6,30.8,29.46,ESE,113,2.5,4.9,54,0.00,,,0.00,WUHU216HW,2013-03-09 08:55:00,
2013-03-09 03:00:00,46.4,30.6,29.46,NNE,23,3.1,3.8,54,0.00,,,0.00,WUHU216HW,2013-03-09 09:00:00,
2013-03-09 03:05:00,46.6,30.8,29.47,ESE,113,0.9,3.8,54,0.00,,,0.00,WUHU216HW,2013-03-09 09:05:00,
2013-03-09 03:10:00,46.4,30.6,29.47,SE,135,2.2,2.5,54,0.00,,,0.00,WUHU216HW,2013-03-09 09:10:00,
2013-03-09 03:15:00,46.4,30.6,29.46,SE,135,1.6,5.4,54,0.00,,,0.00,WUHU216HW,2013-03-09 09:15:00,
2013-03-09 03:20:00,46.4,30.6,29.46,ESE,113,4.3,5.4,54,0.00,,,0.00,WUHU216HW,2013-03-09 09:20:00,
2013-03-09 03:25:00,46.6,30.8,29.46,SE,135,2.7,4.3,54,0.00,,,0.00,WUHU216HW,2013-03-09 09:25:00,
2013-03-09 03:30:00,46.6,30.3,29.46,SE,135,1.8,3.6,53,0.00,,,0.00,WUHU216HW,2013-03-09 09:30:00,
2013-03-09 03:35:00,46.4,30.2,29.46,SE,135,2.7,3.6,53,0.00,,,0.00,WUHU216HW,2013-03-09 09:35:00,
2013-03-09 03:40:00,46.4,30.2,29.47,SSE,158,0.7,4.9,53,0.00,,,0.00,WUHU216HW,2013-03-09 09:40:00,
2013-03-09 03:45:00,46.3,30.4,29.47,ESE,113,1.1,4.9,54,0.00,,,0.00,WUHU216HW,2013-03-09 09:45:00,
2013-03-09 03:50:00,46.4,30.6,29.47,ESE,113,3.6,3.6,54,0.00,,,0.00,WUHU216HW,2013-03-09 09:50:00,
2013-03-09 03:55:00,46.4,30.6,29.47,SE,135,0.9,3.6,54,0.00,,,0.00,WUHU216HW,2013-03-09 09:55:00,
2013-03-09 04:00:00,46.4,30.6,29.47,East,90,0.2,2.7,54,0.00,,,0.00,WUHU216HW,2013-03-09 10:00:00,
2013-03-09 04:05:00,46.4,30.6,29.47,SSW,203,1.1,2.2,54,0.00,,,0.00,WUHU216HW,2013-03-09 10:05:00,
2013-03-09 04:10:00,46.3,30.4,29.47,ESE,113,0.2,3.1,54,0.00,,,0.00,WUHU216HW,2013-03-09 10:10:00,
2013-03-09 04:15:00,46.3,30.4,29.48,East,90,1.6,3.1,54,0.00,,,0.00,WUHU216HW,2013-03-09 10:15:00,
2013-03-09 04:20:00,46.3,30.4,29.47,SE,135,3.4,3.4,54,0.00,,,0.00,WUHU216HW,2013-03-09 10:20:00,
2013-03-09 04:25:00,46.3,30.4,29.47,ESE,113,3.1,3.4,54,0.00,,,0.00,WUHU216HW,2013-03-09 10:25:00,
2013-03-09 04:30:00,46.1,30.2,29.47,SE,135,1.8,4.3,54,0.00,,,0.00,WUHU216HW,2013-03-09 10:30:00,
2013-03-09 04:35:00,46.1,30.2,29.47,SSW,203,0.9,4.3,54,0.00,,,0.00,WUHU216HW,2013-03-09 10:35:00,
2013-03-09 04:40:00,46.1,30.2,29.46,North,0,1.1,4.0,54,0.00,,,0.00,WUHU216HW,2013-03-09 10:40:00,
2013-03-09 04:45:00,46.1,30.2,29.47,ESE,113,1.1,4.0,54,0.00,,,0.00,WUHU216HW,2013-03-09 10:45:00,
2013-03-09 04:50:00,46.1,30.2,29.46,SSW,203,0.2,3.8,54,0.00,,,0.00,WUHU216HW,2013-03-09 10:50:00,
2013-03-09 04:55:00,46.1,30.2,29.46,East,90,1.1,4.3,54,0.00,,,0.00,WUHU216HW,2013-03-09 10:55:00,
2013-03-09 05:00:00,46.1,30.2,29.47,SSE,158,1.6,4.3,54,0.00,,,0.00,WUHU216HW,2013-03-09 11:00:00,
2013-03-09 05:05:00,45.9,30.2,29.47,South,180,1.6,2.2,54,0.00,,,0.00,WUHU216HW,2013-03-09 11:05:00,
2013-03-09 05:09:00,45.9,30.2,29.47,NE,45,3.1,3.1,54,0.00,,,0.00,WUHU216HW,2013-03-09 11:09:00,
2013-03-09 05:14:00,45.9,31.1,29.47,South,180,1.1,3.1,56,0.00,,,0.00,WUHU216HW,2013-03-09 11:14:00,
2013-03-09 05:19:00,45.9,31.1,29.47,ESE,113,1.1,1.6,56,0.00,,,0.00,WUHU216HW,2013-03-09 11:19:00,
2013-03-09 05:24:00,45.7,31.3,29.47,SSW,203,0.9,1.3,57,0.00,,,0.00,WUHU216HW,2013-03-09 11:24:00,
2013-03-09 05:29:00,45.7,31.3,29.47,SSE,158,0.7,1.1,57,0.00,,,0.00,WUHU216HW,2013-03-09 11:29:00,
2013-03-09 05:34:00,45.7,31.3,29.48,ENE,68,0.9,2.2,57,0.00,,,0.00,WUHU216HW,2013-03-09 11:34:00,
2013-03-09 05:39:00,45.7,31.3,29.48,SE,135,0.4,2.2,57,0.00,,,0.00,WUHU216HW,2013-03-09 11:39:00,
2013-03-09 05:44:00,45.5,31.1,29.48,SSW,203,1.1,4.0,57,0.00,,,0.00,WUHU216HW,2013-03-09 11:44:00,
2013-03-09 05:49:00,45.4,31.4,29.48,SSE,158,2.0,4.0,58,0.00,,,0.00,WUHU216HW,2013-03-09 11:49:00,
2013-03-09 05:54:00,45.4,31.9,29.47,NNE,23,1.3,2.0,59,0.00,,,0.00,WUHU216HW,2013-03-09 11:54:00,
2013-03-09 05:59:00,45.2,32.1,29.47,East,90,1.1,1.8,60,0.01,,,0.01,WUHU216HW,2013-03-09 11:59:00,
2013-03-09 06:04:00,45.0,32.4,29.46,ESE,113,2.5,2.5,61,0.02,,,0.02,WUHU216HW,2013-03-09 12:04:00,
2013-03-09 06:09:00,44.8,32.6,29.46,SW,225,1.1,2.7,62,0.02,,,0.02,WUHU216HW,2013-03-09 12:09:00,
2013-03-09 06:14:00,44.6,32.9,29.46,East,90,0.9,2.7,63,0.02,,,0.02,WUHU216HW,2013-03-09 12:14:00,
2013-03-09 06:19:00,44.5,33.0,29.46,East,90,1.1,2.5,64,0.02,,,0.02,WUHU216HW,2013-03-09 12:19:00,
2013-03-09 06:24:00,44.5,33.8,29.47,ENE,68,1.1,2.5,66,0.04,,,0.03,WUHU216HW,2013-03-09 12:24:00,
2013-03-09 06:29:00,44.3,33.2,29.47,East,90,1.8,2.5,65,0.04,,,0.04,WUHU216HW,2013-03-09 12:29:00,
2013-03-09 06:34:00,44.3,33.6,29.47,East,90,1.8,2.5,66,0.05,,,0.05,WUHU216HW,2013-03-09 12:34:00,
2013-03-09 06:39:00,44.3,33.6,29.47,East,90,1.6,2.5,66,0.06,,,0.05,WUHU216HW,2013-03-09 12:39:00,
2013-03-09 06:44:00,44.1,34.2,29.47,ESE,113,0.0,2.2,68,0.06,,,0.06,WUHU216HW,2013-03-09 12:44:00,
2013-03-09 06:49:00,43.9,34.0,29.47,NE,45,2.5,2.5,68,0.07,,,0.07,WUHU216HW,2013-03-09 12:49:00,
2013-03-09 06:54:00,43.7,34.3,29.46,NNE,23,1.3,2.5,69,0.07,,,0.08,WUHU216HW,2013-03-09 12:54:00,
2013-03-09 06:59:00,43.7,33.8,29.46,East,90,0.7,3.1,68,0.07,,,0.08,WUHU216HW,2013-03-09 12:59:00,
2013-03-09 07:04:00,43.6,34.1,29.47,East,90,0.4,3.1,69,0.06,,,0.08,WUHU216HW,2013-03-09 13:04:00,
2013-03-09 07:09:00,43.6,34.1,29.46,ESE,113,0.4,1.8,69,0.06,,,0.08,WUHU216HW,2013-03-09 13:09:00,
2013-03-09 07:14:00,43.7,34.3,29.46,ESE,113,2.7,2.7,69,0.07,,,0.09,WUHU216HW,2013-03-09 13:14:00,
2013-03-09 07:19:00,43.6,34.1,29.47,ENE,68,2.0,2.7,69,0.06,,,0.09,WUHU216HW,2013-03-09 13:19:00,
2013-03-09 07:24:00,43.6,34.1,29.47,ENE,68,0.7,2.5,69,0.06,,,0.09,WUHU216HW,2013-03-09 13:24:00,
2013-03-09 07:29:00,43.6,34.1,29.47,ENE,68,1.8,3.1,69,0.06,,,0.10,WUHU216HW,2013-03-09 13:29:00,
2013-03-09 07:34:00,43.6,34.5,29.48,ENE,68,0.7,3.1,70,0.06,,,0.11,WUHU216HW,2013-03-09 13:34:00,
2013-03-09 07:39:00,43.6,34.5,29.49,West,270,0.2,1.3,70,0.05,,,0.11,WUHU216HW,2013-03-09 13:39:00,
2013-03-09 07:44:00,43.6,34.8,29.49,SSW,203,1.1,1.1,71,0.05,,,0.12,WUHU216HW,2013-03-09 13:44:00,
2013-03-09 07:49:00,43.6,34.8,29.49,SE,135,1.3,1.3,71,0.04,,,0.12,WUHU216HW,2013-03-09 13:49:00,
2013-03-09 07:54:00,43.6,34.5,29.48,East,90,1.8,2.0,70,0.04,,,0.12,WUHU216HW,2013-03-09 13:54:00,
2013-03-09 07:59:00,43.6,34.5,29.48,ESE,113,2.5,2.5,70,0.04,,,0.12,WUHU216HW,2013-03-09 13:59:00,
2013-03-09 08:04:00,43.6,34.5,29.48,SW,225,0.4,2.5,70,0.04,,,0.12,WUHU216HW,2013-03-09 14:04:00,
2013-03-09 08:09:00,43.6,34.8,29.48,ESE,113,1.1,2.5,71,0.04,,,0.12,WUHU216HW,2013-03-09 14:09:00,
2013-03-09 08:14:00,43.6,34.8,29.47,SE,135,0.4,3.1,71,0.04,,,0.13,WUHU216HW,2013-03-09 14:14:00,
2013-03-09 08:19:00,43.6,34.8,29.47,SE,135,1.3,3.1,71,0.04,,,0.13,WUHU216HW,2013-03-09 14:19:00,
2013-03-09 08:24:00,43.6,34.8,29.47,SE,135,0.4,2.0,71,0.04,,,0.14,WUHU216HW,2013-03-09 14:24:00,
2013-03-09 08:29:00,43.4,34.7,29.47,SE,135,0.7,3.4,71,0.04,,,0.15,WUHU216HW,2013-03-09 14:29:00,
2013-03-09 08:34:00,43.4,35.0,29.47,ENE,68,1.8,3.4,72,0.05,,,0.16,WUHU216HW,2013-03-09 14:34:00,
2013-03-09 08:39:00,43.4,35.0,29.46,East,90,3.4,4.0,72,0.06,,,0.17,WUHU216HW,2013-03-09 14:39:00,
2013-03-09 08:44:00,43.2,35.2,29.46,East,90,3.4,4.0,73,0.05,,,0.17,WUHU216HW,2013-03-09 14:44:00,
2013-03-09 08:49:00,43.0,35.0,29.46,NE,45,1.8,5.8,73,0.06,,,0.18,WUHU216HW,2013-03-09 14:49:00,
2013-03-09 08:54:00,43.0,35.3,29.46,ESE,113,3.4,5.8,74,0.06,,,0.18,WUHU216HW,2013-03-09 14:54:00,
2013-03-09 08:59:00,43.0,35.0,29.46,ESE,113,2.5,3.6,73,0.06,,,0.18,WUHU216HW,2013-03-09 14:59:00,
2013-03-09 09:04:00,43.0,35.3,29.46,East,90,1.1,3.1,74,0.06,,,0.18,WUHU216HW,2013-03-09 15:04:00,
2013-03-09 09:09:00,43.0,35.3,29.46,NW,315,0.0,4.5,74,0.06,,,0.19,WUHU216HW,2013-03-09 15:09:00,
2013-03-09 09:14:00,43.0,35.3,29.46,ESE,113,2.5,4.5,74,0.07,,,0.20,WUHU216HW,2013-03-09 15:14:00,
2013-03-09 09:19:00,43.0,35.3,29.45,East,90,1.1,4.0,74,0.07,,,0.20,WUHU216HW,2013-03-09 15:19:00,
2013-03-09 09:24:00,43.0,35.3,29.45,ESE,113,3.8,4.7,74,0.06,,,0.21,WUHU216HW,2013-03-09 15:24:00,
2013-03-09 09:29:00,43.0,36.0,29.45,SE,135,2.7,4.7,76,0.05,,,0.21,WUHU216HW,2013-03-09 15:29:00,
2013-03-09 09:34:00,42.8,35.8,29.45,ESE,113,1.8,3.8,76,0.05,,,0.21,WUHU216HW,2013-03-09 15:34:00,
2013-03-09 09:39:00,42.8,35.8,29.44,SE,135,1.6,2.9,76,0.05,,,0.22,WUHU216HW,2013-03-09 15:39:00,
2013-03-09 09:44:00,42.8,36.1,29.45,SSE,158,0.7,2.9,77,0.05,,,0.22,WUHU216HW,2013-03-09 15:44:00,
2013-03-09 09:49:00,42.7,35.9,29.44,SSE,158,2.2,4.0,77,0.05,,,0.23,WUHU216HW,2013-03-09 15:49:00,
2013-03-09 09:54:00,42.7,35.9,29.44,ESE,113,2.5,4.0,77,0.06,,,0.24,WUHU216HW,2013-03-09 15:54:00,
2013-03-09 09:59:00,42.7,36.3,29.44,SE,135,1.6,4.0,78,0.07,,,0.25,WUHU216HW,2013-03-09 15:59:00,
2013-03-09 10:04:00,42.7,35.9,29.44,NW,315,0.7,4.0,77,0.07,,,0.27,WUHU216HW,2013-03-09 16:04:00,
2013-03-09 10:09:00,42.5,35.7,29.44,East,90,0.7,4.0,77,0.07,,,0.27,WUHU216HW,2013-03-09 16:09:00,
2013-03-09 10:14:00,42.7,36.3,29.43,NW,315,2.5,3.4,78,0.08,,,0.28,WUHU216HW,2013-03-09 16:14:00,
2013-03-09 10:19:00,42.5,35.7,29.43,East,90,0.7,4.7,77,0.09,,,0.29,WUHU216HW,2013-03-09 16:19:00,
2013-03-09 10:24:00,42.7,36.3,29.42,NE,45,5.6,5.6,78,0.09,,,0.30,WUHU216HW,2013-03-09 16:24:00,
2013-03-09 10:29:00,42.7,35.9,29.42,SE,135,4.7,5.6,77,0.10,,,0.32,WUHU216HW,2013-03-09 16:29:00,
2013-03-09 10:34:00,42.7,35.9,29.42,SE,135,4.7,5.6,77,0.10,,,0.32,WUHU216HW,2013-03-09 16:34:00,
2013-03-09 10:56:00,43.4,37.3,29.39,SE,135,1.8,1.8,79,0.12,,,0.32,WUHU216HW,2013-03-09 16:56:00,
2013-03-09 11:01:00,43.6,37.4,29.39,NE,45,2.2,2.2,79,0.11,,,0.38,WUHU216HW,2013-03-09 17:01:00,
2013-03-09 11:06:00,44.1,37.7,29.39,ENE,68,4.7,4.9,78,0.11,,,0.39,WUHU216HW,2013-03-09 17:06:00,
2013-03-09 11:11:00,44.5,38.3,29.38,NNE,23,1.8,4.9,79,0.10,,,0.39,WUHU216HW,2013-03-09 17:11:00,
2013-03-09 11:16:00,44.8,38.7,29.38,SE,135,0.4,4.0,79,0.09,,,0.39,WUHU216HW,2013-03-09 17:16:00,
2013-03-09 11:21:00,45.2,39.1,29.38,SSE,158,2.9,3.1,79,0.08,,,0.39,WUHU216HW,2013-03-09 17:21:00,
2013-03-09 11:26:00,45.7,39.2,29.38,SE,135,4.0,4.0,78,0.07,,,0.39,WUHU216HW,2013-03-09 17:26:00,
2013-03-09 11:31:00,46.4,40.0,29.38,ENE,68,5.4,5.4,78,0.05,,,0.39,WUHU216HW,2013-03-09 17:31:00,
2013-03-09 11:36:00,47.0,40.1,29.38,WNW,293,2.9,6.9,77,0.04,,,0.39,WUHU216HW,2013-03-09 17:36:00,
2013-03-09 11:41:00,47.7,40.8,29.37,ESE,113,3.4,6.9,77,0.04,,,0.39,WUHU216HW,2013-03-09 17:41:00,
2013-03-09 11:46:00,48.2,41.0,29.36,SE,135,0.9,3.4,76,0.03,,,0.39,WUHU216HW,2013-03-09 17:46:00,
2013-03-09 11:51:00,49.3,42.0,29.36,WSW,248,2.7,4.0,76,0.01,,,0.39,WUHU216HW,2013-03-09 17:51:00,
2013-03-09 11:56:00,50.0,41.1,29.36,NW,315,2.9,4.0,71,0.01,,,0.39,WUHU216HW,2013-03-09 17:56:00,
2013-03-09 12:01:00,50.0,40.7,29.36,NE,45,1.8,4.5,70,0.00,,,0.39,WUHU216HW,2013-03-09 18:01:00,
2013-03-09 12:06:00,50.2,39.7,29.35,East,90,3.4,4.5,67,0.00,,,0.39,WUHU216HW,2013-03-09 18:06:00,
2013-03-09 12:11:00,50.6,40.9,29.35,ESE,113,3.1,6.7,69,0.00,,,0.39,WUHU216HW,2013-03-09 18:11:00,
2013-03-09 12:16:00,51.1,41.0,29.34,NNE,23,2.9,6.7,68,0.00,,,0.39,WUHU216HW,2013-03-09 18:16:00,
2013-03-09 12:21:00,51.8,41.7,29.33,NE,45,3.4,4.0,68,0.00,,,0.39,WUHU216HW,2013-03-09 18:21:00,
2013-03-09 12:26:00,52.9,42.2,29.33,ESE,113,4.7,8.1,67,0.00,,,0.39,WUHU216HW,2013-03-09 18:26:00,
2013-03-09 12:31:00,53.6,42.1,29.33,ESE,113,1.1,8.1,65,0.00,,,0.39,WUHU216HW,2013-03-09 18:31:00,
2013-03-09 12:36:00,54.2,42.2,29.32,NE,45,3.8,6.5,64,0.00,,,0.39,WUHU216HW,2013-03-09 18:36:00,
2013-03-09 12:41:00,54.5,41.3,29.32,NNE,23,1.8,5.8,61,0.00,,,0.39,WUHU216HW,2013-03-09 18:41:00,
2013-03-09 12:46:00,54.7,40.7,29.31,SSW,203,3.8,5.8,59,0.00,,,0.39,WUHU216HW,2013-03-09 18:46:00,
2013-03-09 12:51:00,55.1,39.1,29.31,SE,135,4.0,4.0,55,0.00,,,0.39,WUHU216HW,2013-03-09 18:51:00,
2013-03-09 12:56:00,55.4,40.3,29.30,ENE,68,0.4,5.8,57,0.00,,,0.39,WUHU216HW,2013-03-09 18:56:00,
2013-03-09 13:02:00,55.6,38.2,29.30,ESE,113,6.0,6.0,52,0.00,,,0.39,WUHU216HW,2013-03-09 19:02:00,
2013-03-09 13:07:00,55.8,38.3,29.30,SSE,158,5.4,6.0,52,0.00,,,0.39,WUHU216HW,2013-03-09 19:07:00,
2013-03-09 13:12:00,55.4,38.0,29.29,ESE,113,2.2,8.7,52,0.00,,,0.39,WUHU216HW,2013-03-09 19:12:00,
2013-03-09 13:17:00,55.3,38.4,29.29,ESE,113,4.3,8.7,53,0.00,,,0.39,WUHU216HW,2013-03-09 19:17:00,
2013-03-09 13:22:00,55.4,39.4,29.28,NW,315,0.9,6.3,55,0.00,,,0.39,WUHU216HW,2013-03-09 19:22:00,
2013-03-09 13:27:00,56.2,39.3,29.28,ESE,113,4.7,6.9,53,0.00,,,0.39,WUHU216HW,2013-03-09 19:27:00,
2013-03-09 13:32:00,56.7,40.7,29.27,East,90,1.8,6.9,55,0.00,,,0.39,WUHU216HW,2013-03-09 19:32:00,
2013-03-09 13:37:00,57.4,40.0,29.27,SSE,158,4.0,5.6,52,0.00,,,0.39,WUHU216HW,2013-03-09 19:37:00,
2013-03-09 13:42:00,57.6,41.0,29.27,East,90,3.8,5.6,54,0.00,,,0.39,WUHU216HW,2013-03-09 19:42:00,
2013-03-09 13:46:00,58.0,40.5,29.26,NNW,338,1.8,4.5,52,0.00,,,0.39,WUHU216HW,2013-03-09 19:46:00,
2013-03-09 13:51:00,58.5,41.0,29.26,North,0,6.3,6.9,52,0.00,,,0.39,WUHU216HW,2013-03-09 19:51:00,
2013-03-09 13:56:00,58.7,41.6,29.26,East,90,2.0,6.9,53,0.00,,,0.39,WUHU216HW,2013-03-09 19:56:00,
2013-03-09 14:01:00,59.4,41.8,29.26,SE,135,6.0,6.0,52,0.00,,,0.39,WUHU216HW,2013-03-09 20:01:00,
2013-03-09 14:06:00,60.1,41.5,29.25,East,90,3.6,6.0,50,0.00,,,0.39,WUHU216HW,2013-03-09 20:06:00,
2013-03-09 14:11:00,60.5,42.3,29.25,East,90,2.7,4.9,51,0.00,,,0.39,WUHU216HW,2013-03-09 20:11:00,
2013-03-09 14:16:00,61.2,42.9,29.25,ENE,68,2.9,4.3,51,0.00,,,0.39,WUHU216HW,2013-03-09 20:16:00,
2013-03-09 14:21:00,61.6,42.8,29.24,East,90,3.6,4.0,50,0.00,,,0.39,WUHU216HW,2013-03-09 20:21:00,
2013-03-09 14:26:00,61.9,41.9,29.24,ESE,113,4.0,6.9,48,0.00,,,0.39,WUHU216HW,2013-03-09 20:26:00,
2013-03-09 14:31:00,62.3,42.3,29.23,ESE,113,4.5,7.6,48,0.00,,,0.39,WUHU216HW,2013-03-09 20:31:00,
2013-03-09 14:36:00,62.6,42.6,29.23,SE,135,4.3,9.2,48,0.00,,,0.39,WUHU216HW,2013-03-09 20:36:00,
2013-03-09 14:41:00,63.0,41.8,29.22,ESE,113,3.6,9.2,46,0.00,,,0.39,WUHU216HW,2013-03-09 20:41:00,
2013-03-09 14:46:00,63.4,42.7,29.22,NE,45,5.6,6.5,47,0.00,,,0.39,WUHU216HW,2013-03-09 20:46:00,
2013-03-09 14:51:00,63.5,42.2,29.21,ESE,113,3.1,7.6,46,0.00,,,0.39,WUHU216HW,2013-03-09 20:51:00,
2013-03-09 14:56:00,63.9,41.4,29.21,SE,135,5.8,7.6,44,0.00,,,0.39,WUHU216HW,2013-03-09 20:56:00,
2013-03-09 15:01:00,65.3,43.4,29.21,ESE,113,3.4,5.8,45,0.00,,,0.39,WUHU216HW,2013-03-09 21:01:00,
2013-03-09 15:06:00,67.0,43.7,29.20,ESE,113,4.7,5.8,43,0.00,,,0.39,WUHU216HW,2013-03-09 21:06:00,
2013-03-09 15:11:00,68.4,44.9,29.20,ESE,113,5.1,5.8,43,0.00,,,0.39,WUHU216HW,2013-03-09 21:11:00,
2013-03-09 15:16:00,69.7,45.5,29.20,ESE,113,7.4,8.7,42,0.00,,,0.39,WUHU216HW,2013-03-09 21:16:00,
2013-03-09 15:21:00,69.8,45.6,29.19,ESE,113,1.3,8.7,42,0.00,,,0.39,WUHU216HW,2013-03-09 21:21:00,
2013-03-09 15:26:00,69.8,45.6,29.19,NNE,23,1.1,7.4,42,0.00,,,0.39,WUHU216HW,2013-03-09 21:26:00,
2013-03-09 15:31:00,70.0,45.2,29.19,South,180,1.6,5.8,41,0.00,,,0.39,WUHU216HW,2013-03-09 21:31:00,
2013-03-09 15:37:00,70.2,45.4,29.19,NE,45,5.8,5.8,41,0.00,,,0.39,WUHU216HW,2013-03-09 21:37:00,
2013-03-09 15:42:00,70.6,42.9,29.19,ESE,113,2.9,6.7,37,0.00,,,0.39,WUHU216HW,2013-03-09 21:42:00,
2013-03-09 15:47:00,71.5,45.9,29.18,ESE,113,1.8,6.7,40,0.00,,,0.39,WUHU216HW,2013-03-09 21:47:00,
2013-03-09 15:52:00,72.4,43.7,29.18,North,0,3.1,4.0,36,0.00,,,0.39,WUHU216HW,2013-03-09 21:52:00,
2013-03-09 15:57:00,73.3,43.0,29.18,ESE,113,2.7,4.0,34,0.00,,,0.39,WUHU216HW,2013-03-09 21:57:00,
2013-03-09 16:02:00,74.3,46.3,29.18,SSE,158,0.9,2.9,37,0.00,,,0.39,WUHU216HW,2013-03-09 22:02:00,
2013-03-09 16:07:00,74.7,41.3,29.17,SSE,158,3.8,3.8,30,0.00,,,0.39,WUHU216HW,2013-03-09 22:07:00,
2013-03-09 16:12:00,74.7,40.2,29.17,SSW,203,3.4,4.0,29,0.00,,,0.39,WUHU216HW,2013-03-09 22:12:00,
2013-03-09 16:17:00,74.3,38.9,29.17,South,180,4.0,4.0,28,0.00,,,0.39,WUHU216HW,2013-03-09 22:17:00,
2013-03-09 16:22:00,74.2,34.8,29.17,SSW,203,2.5,4.7,24,0.00,,,0.39,WUHU216HW,2013-03-09 22:22:00,
2013-03-09 16:27:00,73.6,36.3,29.17,NNW,338,2.5,4.7,26,0.00,,,0.39,WUHU216HW,2013-03-09 22:27:00,
2013-03-09 16:32:00,73.1,35.8,29.17,SE,135,2.2,5.1,26,0.00,,,0.39,WUHU216HW,2013-03-09 22:32:00,
2013-03-09 16:37:00,72.2,38.1,29.17,WNW,293,3.4,5.1,29,0.00,,,0.39,WUHU216HW,2013-03-09 22:37:00,
2013-03-09 16:42:00,72.0,38.0,29.17,SE,135,1.6,4.5,29,0.00,,,0.39,WUHU216HW,2013-03-09 22:42:00,
2013-03-09 16:47:00,71.6,37.7,29.17,SSE,158,2.5,4.9,29,0.00,,,0.39,WUHU216HW,2013-03-09 22:47:00,
2013-03-09 16:52:00,70.9,38.1,29.17,SW,225,2.5,5.1,30,0.00,,,0.39,WUHU216HW,2013-03-09 22:52:00,
2013-03-09 16:57:00,70.4,37.5,29.17,East,90,1.1,5.1,30,0.00,,,0.39,WUHU216HW,2013-03-09 22:57:00,
2013-03-09 17:02:00,69.8,37.8,29.17,South,180,1.8,4.3,31,0.00,,,0.39,WUHU216HW,2013-03-09 23:02:00,
2013-03-09 17:07:00,69.3,37.4,29.17,East,90,1.8,6.0,31,0.00,,,0.39,WUHU216HW,2013-03-09 23:07:00,
2013-03-09 17:12:00,68.9,37.7,29.17,East,90,2.7,6.0,32,0.00,,,0.39,WUHU216HW,2013-03-09 23:12:00,
2013-03-09 17:17:00,68.8,37.6,29.17,NE,45,0.9,2.7,32,0.00,,,0.39,WUHU216HW,2013-03-09 23:17:00,
2013-03-09 17:22:00,68.4,38.0,29.17,East,90,1.3,3.6,33,0.00,,,0.39,WUHU216HW,2013-03-09 23:22:00,
2013-03-09 17:27:00,68.2,37.1,29.17,WSW,248,6.5,6.5,32,0.00,,,0.39,WUHU216HW,2013-03-09 23:27:00,
2013-03-09 17:32:00,67.9,37.5,29.17,SE,135,5.4,6.5,33,0.00,,,0.39,WUHU216HW,2013-03-09 23:32:00,
2013-03-09 17:37:00,67.9,38.3,29.17,WSW,248,0.7,5.4,34,0.00,,,0.39,WUHU216HW,2013-03-09 23:37:00,
2013-03-09 17:42:00,67.7,38.1,29.17,East,90,4.3,4.3,34,0.00,,,0.39,WUHU216HW,2013-03-09 23:42:00,
2013-03-09 17:47:00,67.3,37.8,29.17,East,90,4.0,4.9,34,0.00,,,0.39,WUHU216HW,2013-03-09 23:47:00,
2013-03-09 17:52:00,67.0,37.5,29.17,North,0,2.9,6.9,34,0.00,,,0.39,WUHU216HW,2013-03-09 23:52:00,
2013-03-09 17:57:00,66.8,37.4,29.17,ESE,113,3.1,6.9,34,0.00,,,0.39,WUHU216HW,2013-03-09 23:57:00,
2013-03-09 18:02:00,66.4,38.5,29.17,SSE,158,3.1,3.1,36,0.00,,,0.39,WUHU216HW,2013-03-10 00:02:00,
2013-03-09 18:07:00,66.2,39.1,29.18,WNW,293,1.3,6.3,37,0.00,,,0.39,WUHU216HW,2013-03-10 00:07:00,
2013-03-09 18:12:00,65.9,38.7,29.18,ESE,113,2.2,6.3,37,0.00,,,0.39,WUHU216HW,2013-03-10 00:12:00,
2013-03-09 18:17:00,65.7,39.3,29.18,SE,135,3.4,3.4,38,0.00,,,0.39,WUHU216HW,2013-03-10 00:17:00,
2013-03-09 18:22:00,65.3,39.7,29.18,SSE,158,1.1,4.5,39,0.00,,,0.39,WUHU216HW,2013-03-10 00:22:00,
2013-03-09 18:27:00,65.0,39.3,29.18,ENE,68,3.4,4.5,39,0.00,,,0.39,WUHU216HW,2013-03-10 00:27:00,
2013-03-09 18:32:00,64.6,39.1,29.18,SW,225,2.2,3.6,39,0.00,,,0.39,WUHU216HW,2013-03-10 00:32:00,
2013-03-09 18:37:00,64.4,39.6,29.18,SE,135,2.7,4.0,40,0.00,,,0.39,WUHU216HW,2013-03-10 00:37:00,
2013-03-09 18:42:00,63.9,39.2,29.18,East,90,0.2,4.0,40,0.00,,,0.39,WUHU216HW,2013-03-10 00:42:00,
2013-03-09 18:47:00,63.7,39.5,29.18,SE,135,1.6,3.4,41,0.00,,,0.39,WUHU216HW,2013-03-10 00:47:00,
2013-03-09 18:52:00,63.7,39.0,29.18,ESE,113,3.4,3.4,40,0.00,,,0.39,WUHU216HW,2013-03-10 00:52:00,
2013-03-09 18:57:00,63.4,39.3,29.18,NNW,338,2.5,3.4,41,0.00,,,0.39,WUHU216HW,2013-03-10 00:57:00,
2013-03-09 19:02:00,63.0,38.4,29.18,SSE,158,4.0,4.0,40,0.00,,,0.39,WUHU216HW,2013-03-10 01:02:00,
2013-03-09 19:07:00,63.0,38.9,29.18,WNW,293,3.4,4.0,41,0.00,,,0.39,WUHU216HW,2013-03-10 01:07:00,
2013-03-09 19:12:00,62.8,38.7,29.18,ESE,113,1.3,7.2,41,0.00,,,0.39,WUHU216HW,2013-03-10 01:12:00,
2013-03-09 19:17:00,62.6,38.0,29.17,SE,135,2.5,7.2,40,0.00,,,0.39,WUHU216HW,2013-03-10 01:17:00,
2013-03-09 19:22:00,62.5,37.8,29.18,SE,135,2.9,4.3,40,0.00,,,0.39,WUHU216HW,2013-03-10 01:22:00,
2013-03-09 19:27:00,62.3,37.6,29.18,SE,135,2.2,4.7,40,0.00,,,0.39,WUHU216HW,2013-03-10 01:27:00,
2013-03-09 19:32:00,62.3,37.6,29.18,SE,135,2.0,4.7,40,0.00,,,0.39,WUHU216HW,2013-03-10 01:32:00,
2013-03-09 19:37:00,62.3,37.6,29.18,WSW,248,0.4,3.4,40,0.00,,,0.39,WUHU216HW,2013-03-10 01:37:00,
2013-03-09 19:42:00,62.3,37.6,29.18,ESE,113,6.0,6.0,40,0.00,,,0.39,WUHU216HW,2013-03-10 01:42:00,
2013-03-09 19:47:00,62.1,37.5,29.18,ESE,113,1.8,6.0,40,0.00,,,0.39,WUHU216HW,2013-03-10 01:47:00,
2013-03-09 19:52:00,61.9,37.9,29.17,NNW,338,0.7,1.8,41,0.00,,,0.39,WUHU216HW,2013-03-10 01:52:00,
2013-03-09 19:57:00,61.7,37.7,29.17,SSW,203,2.5,3.4,41,0.00,,,0.39,WUHU216HW,2013-03-10 01:57:00,
2013-03-09 20:02:00,61.6,37.6,29.17,ESE,113,3.4,4.5,41,0.00,,,0.39,WUHU216HW,2013-03-10 02:02:00,
2013-03-09 20:07:00,61.4,38.0,29.17,ESE,113,0.7,4.5,42,0.00,,,0.39,WUHU216HW,2013-03-10 02:07:00,
2013-03-09 20:12:00,61.2,37.8,29.17,WNW,293,1.3,3.4,42,0.00,,,0.39,WUHU216HW,2013-03-10 02:12:00,
2013-03-09 20:17:00,61.2,37.8,29.17,SSW,203,1.8,3.4,42,0.00,,,0.39,WUHU216HW,2013-03-10 02:17:00,
2013-03-09 20:22:00,61.0,38.3,29.17,ESE,113,2.5,2.9,43,0.00,,,0.39,WUHU216HW,2013-03-10 02:22:00,
2013-03-09 20:27:00,60.8,37.5,29.17,SE,135,3.4,3.4,42,0.00,,,0.39,WUHU216HW,2013-03-10 02:27:00,
2013-03-09 20:32:00,60.8,38.1,29.17,SSE,158,1.1,3.4,43,0.00,,,0.39,WUHU216HW,2013-03-10 02:32:00,
2013-03-09 20:37:00,60.7,37.9,29.17,SE,135,1.8,3.4,43,0.00,,,0.39,WUHU216HW,2013-03-10 02:37:00,
2013-03-09 20:42:00,60.5,37.8,29.17,East,90,1.8,3.4,43,0.00,,,0.39,WUHU216HW,2013-03-10 02:42:00,
2013-03-09 20:47:00,60.5,37.2,29.16,ESE,113,3.8,4.7,42,0.00,,,0.39,WUHU216HW,2013-03-10 02:47:00,
2013-03-09 20:52:00,60.3,37.6,29.16,NE,45,1.1,5.1,43,0.00,,,0.39,WUHU216HW,2013-03-10 02:52:00,
2013-03-09 20:57:00,60.3,37.6,29.17,East,90,2.0,5.1,43,0.00,,,0.39,WUHU216HW,2013-03-10 02:57:00,
2013-03-09 21:02:00,60.1,37.4,29.17,ESE,113,2.2,4.5,43,0.00,,,0.39,WUHU216HW,2013-03-10 03:02:00,
2013-03-09 21:07:00,60.1,37.4,29.17,ESE,113,0.9,4.5,43,0.00,,,0.39,WUHU216HW,2013-03-10 03:07:00,
2013-03-09 21:12:00,60.1,37.4,29.17,ESE,113,2.7,4.5,43,0.00,,,0.39,WUHU216HW,2013-03-10 03:12:00,
2013-03-09 21:17:00,60.1,37.4,29.17,SE,135,2.0,4.5,43,0.00,,,0.39,WUHU216HW,2013-03-10 03:17:00,
2013-03-09 21:22:00,60.1,37.4,29.17,SE,135,0.2,4.0,43,0.00,,,0.39,WUHU216HW,2013-03-10 03:22:00,
2013-03-09 21:27:00,60.1,37.4,29.17,SW,225,0.4,4.0,43,0.00,,,0.39,WUHU216HW,2013-03-10 03:27:00,
2013-03-09 21:32:00,60.1,37.4,29.17,SE,135,0.4,1.8,43,0.00,,,0.39,WUHU216HW,2013-03-10 03:32:00,
2013-03-09 21:36:00,60.1,37.4,29.17,SE,135,0.4,1.1,43,0.00,,,0.39,WUHU216HW,2013-03-10 03:36:00,
2013-03-09 21:59:00,59.8,37.1,29.17,East,90,1.3,1.3,43,0.00,,,0.39,WUHU216HW,2013-03-10 03:59:00,
2013-03-09 22:04:00,59.8,36.0,29.17,ESE,113,3.1,3.1,41,0.00,,,0.39,WUHU216HW,2013-03-10 04:04:00,
2013-03-09 22:09:00,59.9,36.7,29.17,WSW,248,0.4,3.1,42,0.00,,,0.39,WUHU216HW,2013-03-10 04:09:00,
2013-03-09 22:14:00,60.1,36.9,29.17,SE,135,2.5,3.1,42,0.00,,,0.39,WUHU216HW,2013-03-10 04:14:00,
2013-03-09 22:19:00,60.1,36.3,29.17,SW,225,0.4,3.1,41,0.00,,,0.39,WUHU216HW,2013-03-10 04:19:00,
2013-03-09 22:24:00,60.5,35.3,29.17,SE,135,2.2,3.4,39,0.00,,,0.39,WUHU216HW,2013-03-10 04:24:00,
2013-03-09 22:29:00,60.7,35.5,29.17,East,90,2.9,3.4,39,0.00,,,0.39,WUHU216HW,2013-03-10 04:29:00,
2013-03-09 22:34:00,60.8,35.6,29.17,ESE,113,1.6,2.9,39,0.00,,,0.39,WUHU216HW,2013-03-10 04:34:00,
2013-03-09 22:39:00,61.0,35.1,29.18,ESE,113,3.6,5.4,38,0.00,,,0.39,WUHU216HW,2013-03-10 04:39:00,
2013-03-09 22:44:00,61.2,36.0,29.18,West,270,2.5,5.4,39,0.00,,,0.39,WUHU216HW,2013-03-10 04:44:00,
2013-03-09 22:49:00,61.2,36.0,29.17,SE,135,1.8,3.4,39,0.00,,,0.39,WUHU216HW,2013-03-10 04:49:00,
2013-03-09 22:54:00,61.2,36.0,29.17,SW,225,1.8,4.7,39,0.00,,,0.39,WUHU216HW,2013-03-10 04:54:00,
2013-03-09 22:59:00,61.4,36.1,29.17,NNW,338,2.2,6.0,39,0.00,,,0.39,WUHU216HW,2013-03-10 04:59:00,
2013-03-09 23:00:00,61.4,36.1,29.17,ESE,113,2.9,6.0,39,0.00,,,0.39,WUHU216HW,2013-03-10 05:00:00,
2013-03-09 23:05:00,61.4,36.8,29.17,South,180,1.6,6.0,40,0.00,,,0.39,WUHU216HW,2013-03-10 05:05:00,
2013-03-09 23:10:00,61.2,36.7,29.16,SSE,158,0.9,6.3,40,0.00,,,0.39,WUHU216HW,2013-03-10 05:10:00,
2013-03-09 23:15:00,61.2,36.7,29.16,SSE,158,1.6,6.3,40,0.00,,,0.39,WUHU216HW,2013-03-10 05:15:00,
2013-03-09 23:20:00,61.2,37.3,29.16,East,90,1.8,3.4,41,0.00,,,0.39,WUHU216HW,2013-03-10 05:20:00,
2013-03-09 23:25:00,61.0,37.1,29.16,SW,225,1.8,3.4,41,0.00,,,0.39,WUHU216HW,2013-03-10 05:25:00,
2013-03-09 23:30:00,60.8,37.5,29.15,SSE,158,0.7,3.4,42,0.00,,,0.39,WUHU216HW,2013-03-10 05:30:00,
2013-03-09 23:35:00,60.8,37.5,29.16,ESE,113,1.3,2.5,42,0.00,,,0.39,WUHU216HW,2013-03-10 05:35:00,
2013-03-09 23:40:00,60.8,38.1,29.16,SW,225,0.7,1.8,43,0.00,,,0.39,WUHU216HW,2013-03-10 05:40:00,
2013-03-09 23:45:00,60.8,38.1,29.16,ESE,113,0.4,1.8,43,0.00,,,0.39,WUHU216HW,2013-03-10 05:45:00,
2013-03-09 23:50:00,60.8,38.1,29.16,SE,135,0.4,2.5,43,0.00,,,0.39,WUHU216HW,2013-03-10 05:50:00,
2013-03-09 23:55:00,60.8,38.1,29.15,SSE,158,0.4,2.5,43,0.00,,,0.39,WUHU216HW,2013-03-10 05:55:00,